Weather History for Perth, WE

Change the Weather History Date:

Wednesday, December 26, 2012

  Actual Average Record
Temperature  
Mean Temperature 88 °F -  
Max Temperature 104 °F 88 °F 109 °F (2007)
Min Temperature 73 °F 62 °F 51 °F (2013)
Cooling Degree Days 24    
Growing Degree Days 38 (Base 50)    
Moisture  
Dew Point 54 °F    
Average Humidity 31    
Maximum Humidity 57    
Minimum Humidity 9    
Precipitation  
Precipitation 0.00 in 0.01 in - ()
Sea Level Pressure  
Sea Level Pressure 29.83 in    
Wind  
Wind Speed 12 mph ()    
Max Wind Speed 23 mph    
Max Gust Speed 33 mph    
Visibility 18.6 miles    
Events      
Averages and records for this station are not official NWS values.
T = Trace of Precipitation, MM = Missing Value Source: Averaged Metar Reports

Daily Weather History Graph

Daily Weather History Graph

Search for Another Location

Airport:

Trip Planner

Search our weather history database for the weather conditions in past years. The results will help you decide how hot, cold, wet, or windy it might be!

Date:

Astronomy

Dec. 26, 2012 Rise Set
Actual Time 5:09 AM AWST 7:23 PM AWST
Civil Twilight 4:41 AM AWST 7:51 PM AWST
Nautical Twilight 4:06 AM AWST 8:26 PM AWST
Astronomical Twilight 3:29 AM AWST 9:03 PM AWST
Moon 5:37 PM AWST (12/26) 3:20 AM AWST (12/26)
Length of Visible Light 15h 10m
Length of Day
14h 14m
Waxing Gibbous, 95% of the Moon is Illuminated
Dec 26
Waxing Gibbous
Dec 28
Full
Jan 5
Last Quarter
Jan 12
New
Jan 19
First Quarter

Hourly Weather History & Observations

Time (AWST) Temp. Heat Index Dew Point Humidity Pressure Visibility Wind Dir Wind Speed Gust Speed Precip Events Conditions
12:00 AM 76 °F - 60 °F 47% 29.87 in 19 mi South 8.1 mph - -   Partly Cloudy
12:00 AM 75.2 °F - 59.0 °F 57% 29.86 in - South 8.1 mph - N/A   Clear
12:30 AM 75.2 °F - 59.0 °F 57% 29.86 in - SSW 8.1 mph - N/A   Clear
1:00 AM 75.2 °F - 59.0 °F 57% 29.86 in - SSW 8.1 mph - N/A   Clear
1:30 AM 75.2 °F - 57.2 °F 53% 29.86 in - SSW 9.2 mph - N/A   Clear
2:00 AM 74 °F - 57 °F 44% 29.86 in - SSW 9.2 mph - -  
2:00 AM 73.4 °F - 57.2 °F 57% 29.86 in - SSW 9.2 mph - N/A   Clear
2:30 AM 75.2 °F - 55.4 °F 50% 29.86 in - SSW 9.2 mph - N/A   Clear
3:00 AM 74 °F - 56 °F 42% 29.86 in 19 mi SSW 11.5 mph - -   Partly Cloudy
3:00 AM 73.4 °F - 55.4 °F 53% 29.86 in - SSW 11.5 mph - N/A   Clear
3:30 AM 73.4 °F - 55.4 °F 53% 29.86 in - South 10.4 mph - N/A   Clear
4:00 AM 73.4 °F - 55.4 °F 53% 29.86 in - SSW 10.4 mph - N/A   Clear
4:30 AM 75.2 °F - 53.6 °F 47% 29.86 in - South 11.5 mph - N/A   Clear
5:00 AM 75 °F - 53 °F 35% 29.87 in - South 12.7 mph - -  
5:00 AM 75.2 °F - 53.6 °F 47% 29.86 in - South 12.7 mph - N/A   Clear
5:30 AM 75.2 °F - 51.8 °F 44% 29.86 in - SSW 10.4 mph - N/A   Clear
6:00 AM 78 °F - 51 °F 28% 29.88 in 19 mi SSW 13.8 mph - -   Partly Cloudy
6:00 AM 77.0 °F - 51.8 °F 41% 29.86 in - SSW 13.8 mph - N/A   Clear
6:30 AM 80.6 °F - 50.0 °F 34% 29.89 in - SSW 15.0 mph - N/A   Clear
7:00 AM 82.4 °F - 50.0 °F 32% 29.89 in - South 15.0 mph - N/A   Clear
7:30 AM 84.2 °F - 51.8 °F 33% 29.89 in - South 18.4 mph - N/A   Clear
8:00 AM 86 °F - 51 °F 20% 29.88 in - South 15.0 mph - -  
8:00 AM 86.0 °F - 51.8 °F 31% 29.86 in - South 15.0 mph - N/A   Clear
8:30 AM 87.8 °F - 51.8 °F 29% 29.86 in - South 15.0 mph - N/A   Clear
9:00 AM 90 °F - 52 °F 18% 29.87 in 19 mi South 13.8 mph - -   Partly Cloudy
9:00 AM 89.6 °F - 51.8 °F 27% 29.86 in - South 13.8 mph - N/A   Clear
9:30 AM 91.4 °F 89.1 °F 53.6 °F 28% 29.86 in - South 12.7 mph - N/A   Clear
10:00 AM 93.2 °F 90.8 °F 53.6 °F 26% 29.86 in - South 12.7 mph - N/A   Clear
10:30 AM 96.8 °F - 51.8 °F 22% 29.86 in - South 12.7 mph - N/A   Clear
11:00 AM 97 °F - 53 °F 14% 29.84 in - SSW 12.7 mph - -  
11:00 AM 96.8 °F 94.4 °F 53.6 °F 23% 29.83 in - SSW 12.7 mph - N/A   Clear
11:30 AM 98.6 °F - 50.0 °F 19% 29.83 in - SSW 10.4 mph - N/A   Clear
12:00 PM 101 °F - 51 °F 11% 29.83 in 19 mi South 13.8 mph - -   Partly Cloudy
12:00 PM 100.4 °F - 51.8 °F 20% 29.83 in - South 15.0 mph - N/A   Clear
12:30 PM 100.4 °F - 51.8 °F 20% 29.80 in - South 15.0 mph - N/A   Clear
1:00 PM 102.2 °F - 50.0 °F 17% 29.80 in - South 17.3 mph - N/A   Clear
1:30 PM 104.0 °F - 50.0 °F 16% 29.80 in - South 15.0 mph - N/A   Clear
2:00 PM 104 °F - 50 °F 10% 29.79 in - South 13.8 mph - -  
2:00 PM 104.0 °F - 50.0 °F 16% 29.77 in - South 13.8 mph - N/A   Clear
2:30 PM 102.2 °F 101.4 °F 57.2 °F 22% 29.77 in - West 12.7 mph - N/A   Clear
3:00 PM 100 °F - 71 °F 29% 29.78 in 19 mi West 13.8 mph - -   Partly Cloudy
3:00 PM 100.4 °F 109.3 °F 71.6 °F 39% 29.77 in - West 13.8 mph - N/A   Clear
3:30 PM 102.2 °F 101.4 °F 57.2 °F 22% 29.74 in - SSW 19.6 mph - N/A   Clear
4:00 PM 102.2 °F 103.6 °F 60.8 °F 26% 29.74 in - SW 16.1 mph - N/A   Clear
4:30 PM 104.0 °F 102.3 °F 53.6 °F 19% 29.74 in - SW 18.4 mph - N/A   Clear
5:00 PM 104 °F - 50 °F 9% 29.74 in - South 21.9 mph - -  
5:00 PM 104.0 °F - 50.0 °F 16% 29.74 in - South 21.9 mph - N/A   Clear
5:30 PM 102.2 °F - 48.2 °F 16% 29.74 in - South 21.9 mph - N/A   Clear
6:00 PM 101 °F - 49 °F 10% 29.75 in 19 mi South 19.6 mph - -   Partly Cloudy
6:00 PM 100.4 °F - 48.2 °F 17% 29.74 in - South 19.6 mph - N/A   Clear
6:30 PM 98.6 °F - 50.0 °F 19% 29.74 in - South 19.6 mph - N/A   Clear
7:00 PM 96.8 °F - 50.0 °F 20% 29.77 in - SSE 18.4 mph - N/A   Clear
7:30 PM 95.0 °F - 51.8 °F 23% 29.80 in - SSE 18.4 mph - N/A   Clear
8:00 PM 93 °F - 52 °F 16% 29.81 in - ESE 15.0 mph - -  
8:05 PM 91.4 °F 89.1 °F 53.6 °F 28% 29.80 in - ESE 17.3 mph 28.8 mph N/A   Clear
8:30 PM 89.6 °F 87.3 °F 53.6 °F 29% 29.83 in - SE 19.6 mph - N/A   Clear
9:00 PM 87 °F - 54 °F 22% 29.84 in 16 mi SE 13.8 mph - -   Partly Cloudy
9:00 PM 87.8 °F 85.7 °F 53.6 °F 31% 29.83 in - SE 13.8 mph - N/A   Clear
9:29 PM 86.0 °F 84.2 °F 53.6 °F 33% 29.83 in - ESE 17.3 mph 28.8 mph N/A   Clear
9:34 PM 84.2 °F 82.8 °F 53.6 °F 35% 29.83 in - ESE 19.6 mph 33.4 mph N/A   Clear
10:00 PM 84.2 °F - 51.8 °F 33% 29.83 in - East 23.0 mph - N/A   Clear
10:04 PM 82.4 °F - 51.8 °F 35% 29.83 in - East 21.9 mph 33.4 mph N/A   Clear
10:34 PM 80.6 °F - 51.8 °F 37% 29.89 in - ENE 18.4 mph 29.9 mph N/A   Clear
11:00 PM 79 °F - 52 °F 29% 29.92 in - East 17.3 mph - -  
11:00 PM 78.8 °F - 51.8 °F 39% 29.92 in - East 17.3 mph - N/A   Clear
11:16 PM 78.8 °F - 53.6 °F 42% 29.92 in - East 19.6 mph 32.2 mph N/A   Clear
11:30 PM 77.0 °F - 51.8 °F 41% 29.92 in - ENE 17.3 mph - N/A   Clear